Regional Weather Roundup
Issued by NWS

Home | Current Version | Previous Version | Graphics & Text | Print | Product List | Glossary On
Versions: 1 2 3 4 5 6 7 8 9 10 11 12 13 14 15 16 17 18 19 20 21 22 23 24 25 26 27 28 29 30 31 32 33 34 35 36 37 38 39 40 41 42 43 44 45 46 47 48 49 50
000
ASUS43 KLMK 020910
RWRKY
KENTUCKY REGIONAL WEATHER ROUNDUP
NATIONAL WEATHER SERVICE LOUISVILLE KY
500 AM EDT TUE SEP 02 2014

NOTE "FAIR" INDICATES FEW OR NO CLOUDS BELOW 12,000 FEET
WITH NO SIGNIFICANT WEATHER AND/OR OBSTRUCTIONS TO VISIBILITY.

KYZ001>023-026-027-061>063-070>075-021000-
WESTERN AND SOUTH CENTRAL KENTUCKY

CITY           SKY/WX    TMP DP  RH WIND       PRES   REMARKS
PADUCAH        CLOUDY    79  72  79 SW8       29.95R
HENDERSON      CLOUDY    75  70  83 SW9       29.95R
OWENSBORO      NOT AVBL
HOPKINSVILLE   MOCLDY    75  72  88 S6        30.00R
BOWLING GREEN  CLOUDY    74  68  81 S3        30.01R
GLASGOW        MOCLDY    73  67  80 CALM      30.01S
$$

KYZ024-025-028>034-038-045-046-053-021000-
NORTH CENTRAL KENTUCKY

CITY           SKY/WX    TMP DP  RH WIND       PRES   REMARKS
LOUISVILLE/SDF CLOUDY    79  70  74 SW9       29.96S
LOUISVILLE/LOU CLOUDY    78  70  76 S7        29.96F
FORT KNOX      CLOUDY    73  72  94 S8        29.98R
$$

KYZ035>037-039>044-047>052-055>060-089>105-021000-
NORTHEAST KENTUCKY

CITY           SKY/WX    TMP DP  RH WIND       PRES   REMARKS
LEXINGTON      CLOUDY    75  69  81 S7        30.01S
COVINGTON      CLOUDY    76  71  85 S8        29.96F
FRANKFORT      CLOUDY    75  69  81 SW8       29.98F
$$

KYZ054-064>069-076>088-106>120-021000-
SOUTHEAST KENTUCKY

CITY           SKY/WX    TMP DP  RH WIND       PRES   REMARKS
JACKSON        PTCLDY    74  69  85 VRB3      30.06S
LONDON         CLOUDY    73  69  87 CALM      30.06F
SOMERSET       CLOUDY    72  70  94 CALM      30.06S
MIDDLESBORO    MOCLDY    69  69  99 CALM      30.09S
MONTICELLO     CLOUDY    71  69  93 CALM      30.06F
$$




USA.gov is the U.S. government's official web portal to all federal, state and local government web resources and services.